Regional Weather Roundup
Issued by NWS Upton, NY

Current Version | Previous Version | Text Only | Print | Product List | Glossary On
Versions: 1 2 3 4 5 6 7 8 9 10 11 12 13 14 15 16 17 18 19 20 21 22 23 24 25 26 27 28 29 30 31 32 33 34 35 36 37 38 39 40 41 42 43 44 45 46 47 48 49 50
000 ASUS41 KOKX 280508 RWROKX REGIONAL WEATHER ROUNDUP NATIONAL WEATHER SERVICE NEW YORK NY 100 AM EDT TUE JUL 28 2015 NOTE: "FAIR" INDICATES FEW OR NO CLOUDS BELOW 12,000 FEET WITH NO SIGNIFICANT WEATHER AND/OR OBSTRUCTIONS TO VISIBILITY. NYZ071-072-176-178-NJZ106-104-280600- NEW YORK CITY METRO AREA CITY SKY/WX TMP DP RH WIND PRES REMARKS CENTRAL PARK MOCLDY 77 67 71 W5 30.04F LAGUARDIA APRT MOCLDY 78 67 68 SW7 30.01S KENNEDY INTL MOCLDY 75 69 81 SW6 30.03S NEWARK/LIBERTY MOCLDY 76 68 76 SW7 30.01S BRNX BOT. GARD N/A 77 66 69 SW8 30.01F TETERBORO CLEAR 75 67 76 SW5 30.00S $$ NYZ177-179-078>081-280600- LONG ISLAND NEW YORK CITY SKY/WX TMP DP RH WIND PRES REMARKS FARMINGDALE PTCLDY 75 71 87 SW9 30.03R ISLIP CLEAR 74 70 87 SW6 30.01S SHIRLEY CLEAR 75 69 81 S7 30.03S WESTHAMPTON CLEAR 72 70 93 S3 30.05R MONTAUK POINT N/A 74 70 87 SW5 30.04S $$ NYZ052-065-067-280600- HUDSON VALLEY CITY SKY/WX TMP DP RH WIND PRES REMARKS WHITE PLAINS CLEAR 72 68 87 CALM 30.02S NEWBURGH CLEAR 68 68 100 CALM 30.03S MONTGOMERY PTCLDY 67 66 97 CALM 30.02S POUGHKEEPSIE CLEAR 71 67 87 CALM 30.00S ALBANY PTCLDY 74 68 81 S7 29.99S $$ NJZ001-105-106-008-010-013-015-019>022-104-280600- NEW JERSEY CITY SKY/WX TMP DP RH WIND PRES REMARKS NEWARK/LIBERTY MOCLDY 76 68 76 SW7 30.01S TETERBORO CLEAR 75 67 76 SW5 30.00S CALDWELL CLEAR 74 68 81 CALM 30.02S MORRISTOWN CLEAR 73 68 83 CALM 30.02F SOMERVILLE CLEAR 71 68 90 CALM 30.01R FOG SUSSEX CLEAR 69 66 90 CALM 30.03S ANDOVER N/A 68 68 100 CALM 30.04S TRENTON CLEAR 73 68 84 S5 30.02S MILLVILLE CLEAR 73 70 90 CALM 30.02S ATLANTIC CITY MOCLDY 75 72 90 CALM 30.03R WRIGHTSTOWN PTCLDY 71 70 98 S1 30.00S TOMS RIVER PTCLDY 70 68 94 CALM 30.03S BELMAR CLEAR 73 64 73 SW5 30.03S $$ PAZ047>061-062-071-280600- EASTERN PENNSYLVANIA CITY SKY/WX TMP DP RH WIND PRES REMARKS PHILADELPHIA PTCLDY 77 71 82 S6 30.02S ALLENTOWN CLEAR 74 70 87 W3 30.03S SCRANTON CLEAR 68 65 90 E5 30.05R $$ CTZ002-004>006-009-010-012-RIZ004-006-007-MAZ004-011-015-280600- SOUTHERN NEW ENGLAND IN CT CITY SKY/WX TMP DP RH WIND PRES REMARKS BRADLEY INTL PTCLDY 73 67 81 S7 30.00S HARTFORD CLEAR 72 69 90 S3 30.01R DANBURY CLEAR 70 64 81 CALM 30.04S WTRBRY/OXFORD CLEAR 72 63 73 SW3 30.05F BRIDGEPORT CLEAR 75 70 84 SW5 30.01S MERIDEN CLEAR 70 66 87 CALM 30.02R NEW HAVEN CLEAR 72 69 90 CALM 30.02S CHESTER MOCLDY 72 72 100 SW5 30.04S GROTON PTCLDY 71 70 96 SW5 30.02S WILLIMANTIC CLEAR 70 67 90 CALM 30.02S IN RI CITY SKY/WX TMP DP RH WIND PRES REMARKS PROVIDENCE CLEAR 70 68 93 S6 30.02F BLOCK ISLAND CLOUDY 72 72 100 S8 30.04S WESTERLY CLEAR 72 71 97 SW3 30.03S IN MA CITY SKY/WX TMP DP RH WIND PRES REMARKS BOSTON CLEAR 72 68 87 SW8 29.99F WORCESTER CLEAR 68 66 93 SW12 30.02F WESTFIELD FOG 68 66 93 SE3 30.00F VSB 1 PROVINCETOWN CLEAR 70 63 78 S8 30.02F NANTUCKET CLEAR 69 66 90 S7 30.04F $$ ANZ330-335-338-340-345-350-353-355-280600- COASTAL MARINE OBSERVATIONS STATION/POSITION TIME SKY/WX TEMP WIND PRES VSBY WAVE AIR SEA DIR/SP/G HT/PER (UTC) (F) (DEG/KT/KT) (MB) (MI) (FT/S) NY HARB ENTRANCE 0450 75 75 210/ 10/ 12 1016.2 2/11 4S FIRE IS NOT AVBL 20S FIRE ISLAND 0450 74 72 200/ 8/ 8 1016.5 2/11 GREAT SOUTH BAY 0400 76 80 220/ 10/ 12 N/A 23SW MTP 0450 74 74 210/ 8/ 8 1016.6 2/ 7 HUDSON CANYON NOT AVBL KINGS POINT 0400 76 70 190/ 6/ 8 1015.7 CENTRAL LI SOUND NOT AVBL EASTERN LI SOUND 0400 70 68 210/ 4/ 6 N/A ROBBINS REEF 0400 76 170/ 2/ 5 1015.5 $$ >>>>>>>>>>>>>>>>>>>>>>>>>>>> KEY <<<<<<<<<<<<<<<<<<<<<<<<<<< > < > SKY/WX - SKY CONDITION/PRESENT WEATHER < > TMP - TEMPERATURE IN FAHRENHEIT < > DP - DEWPOINT IN FAHRENHEIT < > RH - RELATIVE HUMIDITY IN PERCENT < > WIND - DIRECTION AND SPEED IN MPH < > PRES - MEAN SEA LEVEL PRESSURE IN INCHES OF HG < > WCI - WIND CHILL INDEX < > VSB - VISIBILITY IN MILES < > HX - HEAT INDEX < > TC - TEMPERATURE IN CELSIUS < > VRB - VARIABLE WIND DIRECTION < > < >>>>>>>>>>>>>>>>>>>>>>>>>>>> KEY <<<<<<<<<<<<<<<<<<<<<<<<<<<

USA.gov is the U.S. government's official web portal to all federal, state and local government web resources and services.